Time,TemperatureF,DewpointF,PressureIn,WindDirection,WindDirectionDegrees,WindSpeedMPH,WindSpeedGustMPH,Humidity,HourlyPrecipIn,Conditions,Clouds,dailyrainin,SoftwareType,DateUTC
2013-02-16 00:15:00,20.7,6.7,29.67,NNW,344,0.0,0.0,54,0.00,,,0.00,Wunderground v.1.12,2013-02-16 05:15:00,
2013-02-16 00:45:00,19.7,5.7,29.68,NW,326,0.0,0.0,54,0.00,,,0.00,Wunderground v.1.12,2013-02-16 05:45:00,
2013-02-16 01:15:00,18.9,4.1,29.68,NNW,343,0.0,0.0,52,0.00,,,0.00,Wunderground v.1.12,2013-02-16 06:15:00,
2013-02-16 01:45:00,18.3,4.8,29.69,NW,315,4.0,4.0,55,0.00,,,0.00,Wunderground v.1.12,2013-02-16 06:45:00,
2013-02-16 02:15:00,17.8,3.9,29.70,NNW,342,3.0,3.0,54,0.00,,,0.00,Wunderground v.1.12,2013-02-16 07:15:00,
2013-02-16 02:45:00,17.1,3.3,29.70,NNW,339,0.0,0.0,54,0.00,,,0.00,Wunderground v.1.12,2013-02-16 07:45:00,
2013-02-16 03:15:00,15.8,3.2,29.70,NNW,335,5.0,5.0,57,0.00,,,0.00,Wunderground v.1.12,2013-02-16 08:15:00,
2013-02-16 03:45:00,14.5,3.1,29.70,NNW,333,0.0,0.0,60,0.00,,,0.00,Wunderground v.1.12,2013-02-16 08:45:00,
2013-02-16 04:16:00,14.0,2.7,29.72,NW,325,0.0,0.0,60,0.00,,,0.00,Wunderground v.1.12,2013-02-16 09:16:00,
2013-02-16 04:45:00,13.7,2.0,29.72,NW,324,0.0,0.0,59,0.00,,,0.00,Wunderground v.1.12,2013-02-16 09:45:00,
2013-02-16 05:15:00,13.4,0.2,29.72,NW,308,0.0,0.0,55,0.00,,,0.00,Wunderground v.1.12,2013-02-16 10:15:00,
2013-02-16 05:45:00,12.5,-0.2,29.72,NW,312,0.0,0.0,56,0.00,,,0.00,Wunderground v.1.12,2013-02-16 10:45:00,
2013-02-16 06:15:00,11.2,-1.5,29.72,NW,312,0.0,0.0,56,0.00,,,0.00,Wunderground v.1.12,2013-02-16 11:15:00,
2013-02-16 06:45:00,10.1,-1.4,29.72,NW,312,0.0,0.0,59,0.00,,,0.00,Wunderground v.1.12,2013-02-16 11:45:00,
2013-02-16 07:15:00,9.3,-1.4,29.83,N/A,-737280,0.0,0.0,61,0.00,,,0.00,Wunderground v.1.12,2013-02-16 12:15:00,
2013-02-16 07:45:00,9.4,-1.4,29.74,NW,311,0.0,0.0,61,0.00,,,0.00,Wunderground v.1.12,2013-02-16 12:45:00,
2013-02-16 08:15:00,11.2,-0.7,29.74,NW,311,0.0,0.0,58,0.00,,,0.00,Wunderground v.1.12,2013-02-16 13:15:00,
2013-02-16 08:45:00,12.3,-0.1,29.74,NW,311,0.0,0.0,57,0.00,,,0.00,Wunderground v.1.12,2013-02-16 13:45:00,
2013-02-16 09:15:00,13.9,0.3,29.74,NW,309,1.0,1.0,54,0.00,,,0.00,Wunderground v.1.12,2013-02-16 14:15:00,
2013-02-16 09:45:00,15.0,-0.3,29.74,WNW,297,0.0,0.0,50,0.00,,,0.00,Wunderground v.1.12,2013-02-16 14:45:00,
2013-02-16 10:15:00,17.4,1.5,29.74,North,354,0.0,0.0,49,0.00,,,0.00,Wunderground v.1.12,2013-02-16 15:15:00,
2013-02-16 10:45:00,18.7,1.8,29.72,North,356,0.0,0.0,47,0.00,,,0.00,Wunderground v.1.12,2013-02-16 15:45:00,
2013-02-16 11:15:00,19.1,1.7,29.73,North,349,0.0,0.0,46,0.00,,,0.00,Wunderground v.1.12,2013-02-16 16:15:00,
2013-02-16 11:45:00,19.8,2.3,29.72,WNW,295,0.0,0.0,46,0.00,,,0.00,Wunderground v.1.12,2013-02-16 16:45:00,
2013-02-16 12:15:00,20.1,1.6,29.71,North,356,2.0,2.0,44,0.00,,,0.00,Wunderground v.1.12,2013-02-16 17:15:00,
2013-02-16 12:45:00,21.7,2.1,29.71,North,0,0.0,0.0,42,0.00,,,0.00,Wunderground v.1.12,2013-02-16 17:45:00,
2013-02-16 13:15:00,23.2,4.5,29.70,WNW,285,0.0,0.0,44,0.00,,,0.00,Wunderground v.1.12,2013-02-16 18:15:00,
2013-02-16 13:45:00,22.3,2.6,29.69,SSW,195,0.0,0.0,42,0.00,,,0.00,Wunderground v.1.12,2013-02-16 18:45:00,
2013-02-16 14:15:00,23.5,5.2,29.68,SSW,199,1.0,1.0,45,0.00,,,0.00,Wunderground v.1.12,2013-02-16 19:15:00,
2013-02-16 14:45:00,24.0,5.7,29.67,SSW,199,0.0,0.0,45,0.00,,,0.00,Wunderground v.1.12,2013-02-16 19:45:00,
2013-02-16 15:15:00,23.5,3.2,29.67,ESE,117,0.0,0.0,41,0.00,,,0.00,Wunderground v.1.12,2013-02-16 20:15:00,
2013-02-16 15:45:00,22.7,3.0,29.67,ENE,65,1.0,1.0,42,0.00,,,0.00,Wunderground v.1.12,2013-02-16 20:45:00,
2013-02-16 16:15:00,21.3,2.7,29.68,ENE,65,1.0,1.0,44,0.00,,,0.00,Wunderground v.1.12,2013-02-16 21:15:00,
2013-02-16 16:45:00,19.8,2.3,29.69,ENE,65,0.0,0.0,46,0.00,,,0.00,Wunderground v.1.12,2013-02-16 21:45:00,
2013-02-16 17:15:00,17.7,1.7,29.69,ENE,62,0.0,0.0,49,0.00,,,0.00,Wunderground v.1.12,2013-02-16 22:15:00,
2013-02-16 17:45:00,15.2,0.3,29.69,ENE,62,0.0,0.0,51,0.00,,,0.00,Wunderground v.1.12,2013-02-16 22:45:00,
2013-02-16 18:15:00,13.9,-0.1,29.69,ENE,62,0.0,0.0,53,0.00,,,0.00,Wunderground v.1.12,2013-02-16 23:15:00,
2013-02-16 18:45:00,12.7,-0.4,29.70,ENE,62,0.0,0.0,55,0.00,,,0.00,Wunderground v.1.12,2013-02-16 23:45:00,
2013-02-16 19:15:00,11.8,-0.9,29.70,ENE,62,0.0,0.0,56,0.00,,,0.00,Wunderground v.1.12,2013-02-17 00:15:00,
2013-02-16 19:45:00,9.6,-1.9,29.69,ENE,62,0.0,0.0,59,0.00,,,0.00,Wunderground v.1.12,2013-02-17 00:45:00,
2013-02-16 20:15:00,8.6,-2.5,29.69,ENE,62,0.0,0.0,60,0.00,,,0.00,Wunderground v.1.12,2013-02-17 01:15:00,
2013-02-16 20:45:00,7.1,-3.9,29.68,ENE,62,0.0,0.0,60,0.00,,,0.00,Wunderground v.1.12,2013-02-17 01:45:00,
2013-02-16 21:15:00,5.8,-4.1,29.68,ENE,62,0.0,0.0,63,0.00,,,0.00,Wunderground v.1.12,2013-02-17 02:15:00,
2013-02-16 21:45:00,4.6,-4.3,29.67,ENE,62,0.0,0.0,66,0.00,,,0.00,Wunderground v.1.12,2013-02-17 02:45:00,
2013-02-16 22:15:00,4.0,-4.5,29.67,ENE,62,0.0,0.0,67,0.00,,,0.00,Wunderground v.1.12,2013-02-17 03:15:00,
2013-02-16 22:45:00,3.1,-5.1,29.66,ENE,62,0.0,0.0,68,0.00,,,0.00,Wunderground v.1.12,2013-02-17 03:45:00,
2013-02-16 23:15:00,2.4,-6.7,29.66,ENE,62,0.0,0.0,65,0.00,,,0.00,Wunderground v.1.12,2013-02-17 04:15:00,
2013-02-16 23:45:00,2.1,-7.0,29.65,ENE,62,0.0,0.0,65,0.00,,,0.00,Wunderground v.1.12,2013-02-17 04:45:00,